Theta_e
288 289 290 291 290 290 291 291 291 290 291 291 289 290 291 293 288 286 293 295 294 298 310 315 315 314 313 315 317 317 318 319 319 320 321 323 324 325 326 328 329 330 331 334 338 340 342 344 343 344 346 347 348 348 349 352 354 355 356 356 355 355 354 353 353 353 353 353 352 351 350 349 349 348 347 347 347 347 348 349 351 350 349 348 349 351 354
288 289 290 291 289 289 290 290 292 292 292 291 292 292 292 292 291 293 295 296 295 307 312 316 318 317 313 314 319 318 317 317 317 317 318 320 321 323 325 326 327 329 330 331 332 334 337 340 343 345 345 345 347 348 348 351 354 355 356 356 355 355 354 354 355 355 355 354 353 352 350 349 349 349 348 348 348 347 347 349 349 350 349 348 348 350 351
286 289 291 290 290 289 288 290 292 292 293 293 293 293 293 295 294 297 295 294 299 311 314 318 321 317 316 313 314 316 316 317 317 316 316 317 319 321 323 324 325 327 329 331 332 332 333 335 339 341 345 346 347 348 349 350 353 356 357 356 356 356 355 356 356 356 355 355 354 352 351 351 350 350 349 349 349 348 348 349 349 349 350 348 348 348 350
283 288 289 289 290 289 288 288 290 291 292 292 296 294 296 297 295 294 295 294 300 309 313 315 316 314 314 310 312 314 315 316 317 316 315 316 317 318 319 321 324 325 327 328 330 332 334 335 335 340 342 345 348 349 350 351 351 355 357 357 356 356 357 357 357 356 356 355 354 354 353 351 351 350 350 349 349 349 349 349 349 349 349 348 348 349 349
282 287 289 288 288 286 283 285 289 292 293 297 298 299 304 305 303 295 298 297 306 309 314 310 310 311 312 311 312 314 313 314 316 316 314 315 316 317 318 319 322 323 325 327 328 330 332 335 335 338 340 344 344 347 347 348 352 352 352 355 356 356 357 357 357 357 357 355 355 354 353 353 352 351 350 350 349 349 349 350 350 349 348 348 349 349 349
281 286 288 288 283 277 279 290 294 294 293 296 297 297 305 307 307 303 308 308 311 311 311 309 307 310 311 313 315 315 313 313 314 316 315 315 316 316 317 319 320 321 322 325 328 330 332 336 338 339 341 343 346 346 348 348 348 349 350 351 354 356 357 357 357 357 357 356 355 354 354 354 353 352 351 350 350 350 351 350 349 349 348 348 348 349 350
280 285 286 282 275 278 291 293 295 295 295 299 301 304 304 305 306 306 307 308 309 311 311 312 309 310 312 315 313 314 315 315 313 315 315 315 316 316 316 318 320 321 322 324 327 329 331 336 339 341 342 343 346 347 345 344 346 347 347 348 349 354 357 357 358 358 357 356 355 355 355 354 353 352 351 351 351 351 351 350 349 348 348 347 348 349 350
283 281 280 272 276 287 292 293 295 300 301 302 300 301 302 305 307 306 305 307 307 308 309 311 313 311 312 314 315 313 315 316 314 313 312 312 314 315 316 316 317 320 322 324 326 328 332 332 335 337 338 340 342 344 349 347 347 347 347 347 347 351 356 358 358 358 357 356 356 355 355 354 353 352 352 351 351 351 351 351 351 350 349 349 348 349 350
279 280 279 281 287 287 289 291 295 296 293 295 295 292 298 303 307 308 307 306 307 307 308 309 310 312 313 309 311 316 314 315 315 313 313 315 313 315 317 317 317 319 322 324 326 327 328 329 331 332 336 340 340 340 342 349 349 349 349 347 347 348 353 357 358 358 358 357 356 355 355 354 353 353 352 352 352 352 351 350 350 350 349 349 349 349 350
284 281 278 279 277 277 283 293 299 300 301 301 300 298 297 305 306 309 308 307 306 306 307 307 308 312 308 303 305 313 315 315 315 315 313 313 313 314 315 318 317 318 320 322 324 326 326 327 328 331 333 337 337 339 341 344 348 350 349 349 349 349 351 356 359 359 359 358 357 356 355 354 353 353 354 353 353 354 351 350 350 351 351 350 350 349 349
283 281 278 276 273 279 291 294 298 299 301 302 301 295 293 303 303 307 308 307 308 306 305 306 307 304 300 301 305 309 314 317 315 314 314 312 313 314 314 314 316 317 319 321 323 325 325 325 327 329 332 334 335 336 338 341 343 345 349 351 351 351 351 355 359 360 359 359 358 357 356 355 355 354 353 353 354 354 353 352 351 352 353 351 350 350 350
284 282 278 277 282 281 291 296 297 299 301 303 296 283 286 300 302 307 308 307 307 307 307 307 305 301 298 301 305 310 313 315 318 316 314 313 313 314 315 315 317 318 320 320 321 322 323 324 327 328 329 331 331 333 335 337 339 342 345 350 353 353 354 356 359 360 360 359 358 358 357 356 356 355 355 355 354 353 353 353 352 351 352 352 351 351 351
286 286 280 282 284 294 297 296 298 299 302 299 285 280 292 299 301 306 308 309 310 310 307 307 303 304 305 307 310 312 313 313 314 318 319 315 314 314 315 315 318 316 318 319 320 321 323 324 326 327 328 328 329 332 334 334 336 340 344 348 352 354 353 356 359 360 360 360 359 359 358 358 357 357 356 355 355 354 353 353 352 351 351 352 352 352 352
281 282 280 281 284 293 296 299 299 301 295 282 281 295 300 301 303 307 307 306 311 312 310 308 308 308 310 312 311 310 312 313 312 313 316 317 316 317 318 319 316 315 317 318 320 321 323 324 326 326 327 327 329 331 333 334 336 340 343 346 350 354 355 354 358 359 360 360 360 360 359 359 357 356 357 357 356 354 354 352 351 350 350 350 351 352 352
285 284 281 278 276 289 299 297 296 299 288 289 296 298 301 306 306 306 307 307 308 310 310 310 310 310 310 310 309 309 312 312 312 312 313 314 315 314 315 316 316 316 316 317 319 320 322 324 325 326 327 328 329 331 331 334 338 341 344 348 350 353 355 355 355 358 360 360 359 360 359 359 358 356 357 356 356 355 353 352 351 350 349 349 350 350 351
279 279 278 279 287 293 298 295 289 293 295 297 298 300 299 304 306 306 306 306 308 309 309 308 308 309 309 309 309 308 309 312 313 314 313 314 315 316 316 317 316 316 315 318 319 320 321 323 324 326 327 327 328 329 329 333 335 339 343 348 353 356 356 356 355 356 358 360 360 360 360 359 358 357 356 356 356 355 354 352 351 350 350 349 349 349 350
286 283 286 293 297 296 296 297 295 296 298 299 299 298 298 298 301 304 302 303 305 306 307 308 309 308 309 308 309 307 309 311 311 311 312 313 314 315 316 316 317 315 315 317 317 318 320 322 324 325 326 326 327 326 329 332 334 337 341 346 351 355 357 358 356 356 357 359 360 360 360 360 358 357 356 356 355 355 354 352 351 350 349 349 348 349 349
294 295 295 297 295 294 295 297 298 297 297 298 299 297 296 298 299 300 300 302 304 305 306 305 306 307 308 309 308 307 308 309 310 313 313 313 313 313 316 316 315 314 316 317 316 316 319 322 324 325 325 325 324 326 329 331 333 336 339 341 344 348 353 357 358 357 355 357 360 361 361 360 359 359 357 356 355 355 354 353 352 350 349 349 348 348 349
286 283 294 293 293 294 295 295 298 298 299 298 299 298 298 298 299 300 301 301 303 304 305 305 305 306 309 309 308 308 307 307 308 310 312 313 313 311 314 315 315 314 316 316 315 315 317 321 323 323 323 324 325 327 328 330 332 333 334 336 338 342 347 353 358 357 354 355 358 360 360 360 360 360 359 357 356 354 354 353 352 351 350 348 348 348 349
284 285 291 293 295 295 296 296 295 295 297 298 299 300 300 300 302 302 302 303 302 305 304 305 305 306 308 308 307 307 307 307 308 309 311 312 311 312 315 315 316 314 315 315 314 314 316 320 322 322 322 323 325 326 327 329 330 330 331 332 334 337 342 349 355 356 354 353 355 359 360 360 360 359 359 358 356 355 354 354 352 351 350 349 348 348 348
288 291 292 294 294 295 296 298 298 298 298 298 299 300 301 302 302 303 304 304 304 304 305 305 306 305 306 307 307 308 308 307 307 308 310 311 310 313 315 315 317 314 316 316 314 314 316 319 320 320 320 322 324 325 326 328 328 328 329 330 332 335 342 350 355 354 354 354 356 358 359 360 361 361 360 359 358 357 358 358 356 354 352 351 351 350 350
282 284 288 292 287 288 293 295 297 298 299 300 300 302 302 303 303 303 303 304 305 306 306 306 306 305 306 306 307 308 308 307 307 308 309 309 309 313 315 315 314 315 317 315 313 314 316 319 320 319 319 320 322 324 325 326 326 326 328 329 331 336 344 352 356 355 353 354 356 357 359 359 359 360 352 339 349 359 358 346 339 334 333 351 354 352 351
282 289 292 293 293 293 295 297 299 300 300 301 301 302 302 303 304 304 304 303 304 304 305 307 306 305 306 307 307 307 308 308 309 309 309 308 310 313 315 314 314 316 315 316 314 314 316 320 319 319 319 320 321 323 324 325 325 325 326 328 332 338 346 350 350 354 354 354 355 357 359 359 359 357 356 343 322 328 340 342 330 321 318 323 327 332 348
291 293 293 294 294 293 296 299 300 300 302 302 303 303 304 304 304 304 304 305 304 304 305 306 307 307 306 307 307 306 307 308 308 309 309 309 311 315 316 314 315 315 315 314 313 314 317 319 319 319 319 319 320 322 323 323 324 325 326 328 331 337 344 347 346 348 353 354 355 356 357 359 359 357 356 353 341 314 306 323 325 315 315 315 316 318 323
290 295 295 296 297 298 299 300 301 302 304 305 304 304 304 304 305 307 306 306 307 306 305 305 306 308 307 307 308 307 306 307 310 311 317 320 319 317 315 315 316 315 315 314 314 316 318 318 318 319 318 319 320 321 322 323 324 325 327 329 331 336 343 346 346 347 351 353 354 356 356 357 358 357 356 355 352 347 332 310 313 317 313 311 312 314 315
297 296 297 298 299 300 301 302 301 302 303 304 304 305 306 309 307 307 306 306 307 308 306 306 306 307 308 307 308 308 307 308 313 318 311 311 312 314 313 314 316 317 317 317 318 318 318 319 318 318 318 319 319 321 322 324 325 326 328 330 333 338 342 344 346 344 341 339 342 346 351 357 355 353 354 356 355 354 349 344 337 323 315 312 312 311 309
298 299 299 297 296 296 299 298 297 301 303 305 304 304 306 307 308 307 307 307 307 308 308 308 308 308 308 309 310 311 309 310 312 311 310 311 313 313 314 316 317 318 320 319 319 319 319 317 317 317 317 318 319 321 322 324 324 327 329 329 332 342 350 354 348 343 342 341 341 342 340 341 342 346 349 351 353 353 352 349 349 349 348 332 311 310 328
299 299 299 294 292 293 295 299 301 303 304 304 304 304 305 306 305 305 304 305 305 306 308 308 307 307 306 307 307 307 309 309 309 309 311 312 312 313 313 314 316 317 319 319 319 318 316 315 315 315 316 318 319 321 322 323 324 326 327 327 328 331 339 347 349 343 341 341 340 341 341 340 341 342 344 345 346 348 344 348 350 351 350 345 336 312 307
298 299 300 300 299 299 300 301 302 302 302 304 305 305 304 303 303 303 303 304 305 305 305 307 309 310 308 308 308 309 309 309 309 310 311 311 316 314 313 315 315 316 316 317 316 315 314 313 314 314 315 317 319 321 321 322 322 324 325 325 325 327 330 335 343 345 343 342 342 342 339 339 339 339 341 343 344 344 343 344 346 347 346 332 327 329 322
296 299 300 300 301 301 299 298 298 299 301 302 302 303 303 302 301 301 302 304 305 304 305 306 307 308 309 308 309 311 311 310 310 310 312 315 316 314 314 314 314 314 315 314 314 313 312 312 312 312 314 316 319 320 320 321 321 323 324 323 324 325 326 327 330 339 343 343 342 338 339 339 339 340 340 341 342 342 342 343 343 342 340 335 334 340 340
296 298 298 298 298 298 297 298 299 300 300 301 301 302 302 302 300 300 301 303 304 304 305 305 306 308 308 308 309 310 313 312 311 312 313 314 315 313 312 311 312 312 312 313 314 312 311 311 311 312 313 316 319 319 319 320 320 321 322 321 322 321 321 322 324 331 341 342 340 338 337 337 338 338 338 339 340 341 341 341 340 341 340 338 337 340 344
296 295 296 296 296 296 297 298 298 299 299 300 300 300 300 301 300 300 301 302 303 304 305 305 305 306 309 310 310 311 309 309 310 311 314 314 313 312 311 312 311 312 311 313 312 311 310 310 310 312 314 316 318 318 319 319 319 319 318 321 320 320 321 321 323 327 337 340 338 337 337 337 336 337 337 337 338 339 340 340 340 340 340 339 338 341 341
294 292 291 293 295 294 294 295 296 297 298 299 299 301 301 302 302 302 302 303 303 304 304 305 306 308 310 310 309 310 310 311 312 313 313 312 311 311 311 311 309 310 310 311 310 309 309 309 310 313 315 316 316 317 318 319 319 317 317 317 317 319 323 320 320 322 333 339 337 337 337 338 338 338 337 338 339 339 340 339 339 338 339 339 340 342 332
294 293 293 295 295 294 294 295 296 297 298 299 300 301 302 302 302 302 303 303 303 303 303 304 307 308 308 310 309 309 309 309 310 310 311 311 310 309 309 309 309 309 309 309 309 308 308 309 311 313 314 315 315 316 316 318 317 316 315 316 315 316 317 319 319 321 324 335 338 338 338 338 339 339 338 338 339 339 339 339 338 337 338 338 338 332 320
297 296 297 297 297 297 298 298 297 298 298 298 299 300 302 302 302 302 303 303 302 303 305 305 305 307 308 307 307 307 307 307 307 308 309 310 309 308 307 307 307 307 307 308 307 307 308 310 312 313 313 314 314 314 315 317 316 314 314 314 315 315 316 319 318 318 320 322 329 334 338 338 338 340 339 339 339 339 338 338 338 337 337 335 329 328 322
299 298 298 298 298 299 299 298 299 300 300 298 299 300 300 301 301 301 302 302 303 304 305 305 305 305 305 305 305 305 305 306 306 307 307 309 308 307 305 304 304 305 306 305 306 307 308 310 314 315 312 312 313 313 315 316 315 313 313 312 313 313 314 315 316 317 318 318 321 325 328 334 337 336 337 336 337 337 336 335 332 333 332 330 329 328 325
299 297 297 297 298 298 298 298 299 299 299 299 299 300 301 301 301 301 303 303 303 303 304 304 303 303 303 304 305 306 305 305 306 306 306 308 307 305 303 303 304 304 304 302 304 307 308 310 312 313 311 310 311 311 313 316 314 312 311 310 310 311 311 311 312 312 314 316 317 319 323 326 329 331 333 333 332 331 330 329 329 329 329 329 328 327 326
298 299 297 297 298 298 298 299 301 299 299 299 301 301 302 301 301 302 302 302 302 303 304 304 303 303 304 304 304 304 304 304 305 305 305 306 306 304 303 303 303 304 302 302 305 306 307 310 311 310 308 308 308 309 311 314 314 310 309 309 309 309 310 309 309 311 312 312 315 315 316 318 322 326 328 328 328 328 327 326 324 323 323 323 322 321 320
298 299 299 299 300 299 299 300 299 299 300 298 299 299 302 304 303 303 302 302 302 304 303 303 303 303 302 302 302 303 303 304 304 303 304 304 305 303 302 303 304 305 305 305 305 305 308 308 307 307 307 306 307 308 310 312 312 308 308 308 307 308 308 308 307 308 309 310 311 311 312 313 315 318 320 322 323 322 321 321 320 319 319 318 318 318 317
297 297 297 299 298 298 298 299 299 299 300 300 298 298 300 302 301 301 301 302 302 304 303 303 302 302 301 301 301 301 303 303 303 302 303 303 303 303 302 303 304 306 306 307 305 305 307 308 307 306 306 306 307 307 308 309 309 307 306 306 306 306 306 306 306 306 306 306 307 309 308 309 310 311 313 315 317 318 318 318 317 316 316 316 315 314 313
298 297 298 298 298 298 297 298 298 298 299 298 297 299 300 301 301 300 300 301 302 302 302 303 302 302 301 301 301 302 302 304 304 302 302 301 301 301 299 299 303 306 306 305 305 305 306 306 306 305 305 305 306 308 306 307 304 303 304 305 305 304 304 304 304 304 304 304 305 305 305 306 306 307 308 309 310 311 312 312 313 313 313 312 311 311 310
298 299 298 297 298 298 298 298 299 297 297 297 299 300 300 302 302 301 302 302 302 301 301 302 304 302 302 302 302 302 302 302 303 303 302 301 300 300 299 300 303 305 307 306 305 305 304 303 304 306 304 305 305 307 306 304 303 302 302 303 304 303 303 303 303 303 303 303 303 303 305 305 304 304 305 305 305 306 307 307 308 308 308 308 308 307 307
299 298 298 298 298 298 299 299 299 298 299 298 299 298 300 300 300 301 301 301 301 300 300 301 303 303 302 301 301 300 300 301 301 302 303 302 303 302 301 301 302 304 305 305 303 302 302 302 302 303 306 304 304 305 304 302 302 301 302 302 303 302 302 302 301 301 301 301 300 301 302 302 302 302 302 302 303 304 304 304 304 304 305 305 305 305 304
300 298 299 298 298 299 298 299 300 299 297 297 298 298 298 299 300 300 301 300 300 301 300 300 300 301 301 302 301 299 299 299 299 300 300 300 301 303 304 303 303 304 304 303 302 302 302 302 302 303 305 304 304 304 303 301 301 301 301 301 301 300 301 300 300 300 299 300 300 299 300 301 301 301 301 301 301 302 302 303 303 303 303 303 303 303 303
299 299 299 299 299 300 298 298 298 297 297 298 299 298 299 298 297 299 300 300 301 301 301 300 300 300 301 301 301 300 299 299 299 299 297 297 297 298 303 305 304 303 303 303 301 301 301 301 303 304 304 304 303 302 300 300 300 301 300 300 299 300 299 299 299 299 300 299 299 299 300 299 299 300 300 301 302 301 301 301 301 302 302 302 302 302 301
300 300 301 304 300 298 298 297 299 300 299 298 298 299 300 298 298 299 299 300 300 300 300 300 300 300 300 300 301 301 300 299 298 299 299 299 299 299 303 303 303 303 303 303 301 300 301 304 302 302 302 303 302 300 299 299 299 299 299 299 299 299 299 298 299 298 298 298 298 298 298 297 298 298 299 299 300 300 301 302 301 301 301 301 301 301 301
300 300 300 299 300 301 301 300 301 301 299 298 296 296 299 299 299 297 299 300 300 299 299 299 300 300 300 300 299 299 298 297 296 298 299 299 301 301 302 302 302 302 302 301 300 300 301 301 302 302 302 302 301 299 299 298 298 297 298 298 299 298 299 298 298 298 298 298 298 299 299 299 298 297 299 298 298 299 299 300 299 299 300 301 301 301 301
300 299 298 299 300 300 300 299 299 296 295 295 296 297 299 297 297 297 298 299 300 300 300 299 300 300 301 300 300 300 299 297 294 295 298 298 299 299 300 299 300 301 301 301 301 301 302 301 301 301 301 301 299 298 298 298 298 298 297 297 297 297 298 298 298 298 298 298 298 296 296 296 296 297 297 297 297 297 298 298 298 299 299 299 299 299 299
300 299 300 301 300 300 298 299 299 298 296 297 299 298 299 298 297 298 298 298 298 299 298 299 298 299 300 302 301 300 301 301 298 296 298 298 297 297 298 300 301 301 299 298 298 299 301 300 300 300 300 300 297 297 298 298 298 298 298 298 297 297 298 297 298 298 298 298 298 298 297 297 296 296 296 296 297 297 298 297 297 297 297 298 298 299 299
302 301 299 298 297 298 298 297 297 295 296 300 297 297 299 298 296 295 298 298 299 301 297 296 297 298 298 298 299 301 302 302 302 301 300 299 298 298 299 299 299 300 299 298 298 297 300 301 300 300 299 297 297 297 297 297 298 298 298 298 298 297 298 298 298 298 298 298 298 298 298 298 297 298 298 297 297 297 297 297 297 298 298 298 298 297 297
300 300 299 301 300 300 299 297 296 297 295 297 298 298 300 298 297 299 298 299 297 298 297 297 297 297 297 298 299 299 301 301 302 302 300 300 300 300 300 299 299 299 298 298 297 296 296 297 297 298 297 297 297 297 297 297 297 297 298 297 297 297 297 298 298 297 297 297 297 297 297 297 297 297 297 297 297 297 297 297 297 297 296 297 297 297 297
303 303 302 301 298 298 298 298 298 299 298 299 297 300 299 299 298 298 298 302 298 297 298 298 297 298 300 300 301 300 301 301 302 301 302 301 300 299 300 300 298 298 297 297 296 296 296 297 299 299 298 297 296 296 298 299 297 297 297 298 298 297 297 297 297 297 297 297 297 296 297 296 296 296 296 297 297 297 297 297 297 297 297 297 297 297 296
Wind_Speed
3 4 7 6 6 6 10 13 12 11 10 11 9 5 8 4 3 8 10 8 9 10 8 7 6 10 11 13 15 16 16 15 16 18 19 18 18 17 18 16 14 14 14 12 11 10 9 6 3 7 11 14 13 12 12 13 14 16 15 15 15 15 15 15 15 14 13 13 13 13 14 14 14 14 14 14 14 13 13 13 12 13 13 13 12 12 12
7 7 7 7 7 6 8 10 14 12 11 11 12 10 10 8 6 11 10 6 10 5 8 5 5 7 9 9 9 14 15 17 17 17 17 18 17 17 16 15 14 12 12 12 12 13 14 11 9 1 3 4 7 10 10 11 12 12 12 13 14 14 15 15 14 13 13 12 12 13 14 14 15 15 14 14 14 14 14 14 14 13 13 13 13 13 13
4 5 7 9 9 9 9 8 11 12 11 11 12 11 9 9 5 3 8 5 6 3 4 3 3 5 7 12 17 14 14 14 15 17 16 16 16 15 14 14 14 13 12 11 11 13 13 12 10 10 9 2 7 10 11 11 13 14 14 14 15 15 15 14 14 14 13 13 13 14 14 14 14 15 15 14 14 14 14 14 14 13 13 13 13 13 14
4 2 6 7 10 10 9 6 8 11 8 8 10 8 7 6 7 10 5 5 4 7 8 5 7 7 11 12 12 13 11 13 17 16 14 15 15 16 15 15 14 14 14 13 13 12 11 10 11 10 7 8 4 2 2 3 5 11 15 15 17 17 16 15 15 15 14 14 14 14 14 15 15 14 14 14 14 14 14 14 14 13 14 14 14 14 13
3 2 5 9 9 10 9 4 4 5 7 7 9 9 5 5 4 5 1 6 3 4 5 5 7 8 10 12 11 10 12 13 12 13 13 14 14 14 14 15 15 15 13 12 10 11 10 9 10 10 11 7 5 2 4 2 1 7 11 13 14 14 15 15 15 15 15 15 15 15 15 15 14 13 14 15 15 14 15 14 13 14 14 14 14 14 14
1 4 6 6 6 5 6 1 7 7 12 10 7 8 10 9 8 1 3 4 7 7 5 4 3 8 9 8 9 10 11 10 10 12 12 12 11 13 14 14 14 12 12 11 11 10 8 7 7 7 8 8 6 8 10 3 8 7 9 10 11 13 14 15 15 15 15 16 16 15 14 14 14 14 15 16 15 14 13 13 14 14 15 15 14 14 14
2 2 5 5 3 9 0 7 9 12 15 10 3 8 10 11 12 14 10 8 12 10 10 1 3 4 7 11 11 12 11 10 9 10 12 13 12 12 12 13 14 16 16 15 14 14 12 11 9 10 9 9 8 7 8 15 8 4 3 4 5 7 10 12 13 14 15 15 16 15 15 15 15 15 15 14 15 14 13 14 14 15 15 15 15 14 15
2 3 2 0 8 3 7 9 6 10 10 8 9 4 10 12 12 10 9 11 11 12 12 9 2 2 9 10 12 10 9 11 10 11 12 13 12 11 10 11 11 13 15 15 15 13 11 11 11 10 11 11 10 9 9 11 12 7 5 6 8 8 9 11 13 14 15 15 15 15 15 15 15 16 15 15 15 14 13 13 13 13 13 14 15 15 15
2 3 5 8 5 13 7 2 4 5 2 7 9 5 2 9 10 12 11 10 11 12 12 13 12 6 5 7 9 10 12 10 9 10 9 10 12 13 11 10 11 9 8 11 12 11 11 11 12 12 12 11 11 11 11 11 9 9 6 7 9 9 10 11 13 14 14 15 15 15 15 16 16 16 16 15 14 12 13 13 13 14 14 14 13 14 15
4 2 3 3 3 6 1 1 2 6 7 6 10 5 2 7 10 11 12 11 11 12 13 14 15 9 4 10 9 10 10 9 9 6 7 8 9 10 10 10 8 6 8 11 13 13 13 11 12 12 12 12 11 10 11 12 10 7 7 10 10 11 12 12 13 13 14 15 16 16 15 17 17 15 15 14 14 13 14 14 14 14 13 13 13 14 15
2 2 4 3 4 5 1 5 5 7 8 7 10 6 2 4 9 10 10 13 11 10 11 13 13 10 7 6 5 6 8 7 7 8 8 8 9 9 11 12 14 13 10 9 9 10 12 15 14 12 14 14 12 10 10 13 9 8 7 6 6 9 12 13 14 15 16 17 16 16 17 17 16 16 16 15 13 13 13 13 13 11 11 12 13 13 14
3 3 3 5 3 3 2 6 9 11 9 7 2 5 2 7 12 6 6 8 11 9 8 9 7 8 8 9 7 4 6 6 4 6 8 9 10 10 9 9 11 11 10 10 13 13 12 9 9 10 9 9 10 11 13 10 10 9 7 6 7 8 8 9 12 14 15 17 17 17 18 16 15 15 14 13 14 14 14 13 12 11 11 12 14 13 13
4 6 4 2 3 1 4 8 10 9 6 2 4 5 4 12 10 8 6 6 7 8 7 5 5 4 4 7 7 3 3 6 5 4 3 4 6 9 10 10 10 10 11 10 9 10 10 10 10 9 8 8 9 10 11 11 10 10 10 10 9 8 7 7 9 12 14 16 18 17 17 16 15 14 14 15 14 14 14 13 12 12 12 12 13 13 13
4 5 3 7 5 0 5 8 8 6 3 1 2 2 5 8 9 7 6 8 8 8 7 3 3 6 8 8 6 7 4 4 3 4 5 6 7 7 7 8 9 9 10 10 10 9 8 10 11 9 8 8 8 10 11 12 13 12 11 11 10 10 8 7 8 10 13 14 15 15 15 14 14 14 14 14 13 14 13 12 14 14 12 11 12 12 12
1 1 2 1 3 1 8 10 4 6 3 1 3 7 8 5 6 7 8 7 9 9 7 5 4 6 9 9 6 7 6 6 6 6 7 7 9 10 11 11 10 10 9 10 11 10 9 9 8 8 9 9 8 8 10 12 13 13 13 11 11 11 10 9 7 9 11 14 14 12 13 14 15 15 13 13 13 12 13 13 13 14 13 12 11 12 11
1 1 3 3 1 2 5 7 1 3 3 4 2 4 7 7 6 5 6 7 9 10 10 8 6 5 6 8 7 6 6 7 6 5 6 6 7 8 8 7 10 10 9 9 10 10 10 9 9 9 9 10 11 11 11 11 11 13 14 14 12 11 10 10 9 8 10 13 14 14 15 15 15 14 13 13 13 12 13 13 12 13 12 11 11 12 12
1 3 3 2 2 0 2 2 4 6 5 4 4 3 4 6 7 7 8 9 11 11 12 13 10 7 6 7 8 6 5 6 7 7 7 6 7 7 8 9 10 8 9 11 11 11 10 11 10 10 10 12 14 14 12 12 12 12 12 13 13 13 12 11 11 10 10 11 13 14 14 14 14 14 14 13 12 12 12 12 12 13 12 12 12 12 11
3 8 11 7 2 4 6 6 3 5 8 8 7 7 7 5 7 7 9 11 11 12 12 12 11 9 8 7 7 7 5 5 7 7 6 5 5 5 6 8 10 9 9 9 11 13 13 11 10 10 11 11 14 14 13 13 13 12 13 13 14 14 14 13 12 11 11 12 13 14 15 14 15 14 15 14 13 12 12 12 13 13 12 12 12 12 12
3 4 2 5 8 8 8 7 4 5 6 8 8 9 8 9 9 10 10 9 12 12 12 12 13 13 9 7 5 5 4 4 6 7 8 7 6 5 6 7 9 10 10 10 12 14 14 12 11 11 11 11 11 12 13 13 13 13 13 13 13 13 14 15 13 11 12 11 11 12 13 13 13 13 13 13 13 13 13 14 13 13 13 12 12 12 13
2 6 5 6 8 10 9 3 6 11 13 14 12 10 10 11 10 10 11 10 12 10 11 11 12 12 10 9 8 4 4 4 4 6 7 7 7 6 4 5 7 9 10 11 12 14 13 12 11 11 11 11 11 12 12 12 13 13 13 12 12 13 14 15 13 11 10 14 14 11 12 13 12 12 12 13 13 14 14 13 12 12 11 12 12 13 12
6 7 7 5 11 7 2 2 7 7 9 12 14 14 14 12 13 12 11 9 10 10 11 10 11 12 11 10 10 8 5 4 4 5 6 6 6 6 5 6 6 8 8 10 11 12 12 12 11 11 12 11 11 12 12 12 13 13 12 14 12 13 12 12 13 10 10 10 10 11 11 13 13 14 15 14 14 13 14 12 14 15 14 14 14 13 11
4 3 4 4 6 7 7 9 9 11 11 12 14 15 14 13 13 12 13 13 10 10 10 9 9 11 10 10 9 9 7 6 5 4 5 7 7 6 4 3 4 7 7 9 10 11 11 10 11 11 12 12 12 11 11 12 13 13 14 13 12 12 11 11 12 10 8 9 9 10 12 12 12 11 13 16 15 15 13 18 21 20 16 14 13 11 11
5 5 4 3 6 9 11 11 9 10 11 11 14 16 16 15 13 12 12 13 13 11 9 6 7 7 7 8 7 7 7 8 5 4 5 6 7 6 5 4 4 5 8 9 10 11 11 10 11 11 12 12 12 12 12 12 13 13 12 11 11 11 10 10 12 11 9 8 9 10 11 12 11 11 8 4 3 2 7 12 16 17 18 17 16 16 14
6 6 7 5 4 7 10 10 11 10 10 11 13 13 12 13 13 13 14 13 13 13 10 8 6 8 8 8 7 7 6 6 6 5 5 5 5 6 5 4 4 4 7 9 10 12 11 11 12 12 12 12 13 13 13 12 12 12 12 11 11 11 10 10 11 11 8 9 10 10 10 10 11 11 10 9 2 5 6 3 8 15 18 18 17 18 20
5 5 4 5 6 9 10 10 9 10 10 10 12 13 13 14 14 14 15 16 13 12 11 10 8 7 8 7 5 5 5 5 5 6 6 4 4 4 4 4 4 4 5 5 7 10 10 11 13 13 13 12 13 14 15 14 14 11 11 11 11 12 10 9 10 10 7 6 8 10 11 11 11 11 11 10 11 9 2 1 7 13 16 17 18 20 20
9 8 6 4 4 8 9 8 9 8 10 11 11 12 14 16 16 15 14 15 13 9 9 9 9 8 6 7 7 5 4 5 6 5 4 4 4 4 3 2 4 4 5 5 6 7 9 12 12 12 13 13 13 15 15 15 13 12 11 10 12 11 9 10 10 6 3 3 4 5 6 10 11 12 14 15 16 15 13 9 2 2 2 11 14 12 10
8 8 4 5 7 8 6 6 7 10 12 11 11 12 13 13 15 12 11 11 12 11 9 9 8 8 6 6 6 5 5 5 4 3 3 3 4 5 3 2 3 4 6 6 5 6 11 12 12 12 13 13 13 14 14 15 15 13 13 15 14 16 19 15 8 7 6 6 7 7 4 6 8 11 12 13 12 12 13 14 13 13 11 6 4 11 13
7 6 7 6 6 6 5 6 8 10 11 11 11 12 12 11 11 12 12 13 14 14 11 7 7 6 7 7 6 5 4 5 5 3 2 3 3 2 2 3 4 4 5 5 5 7 9 8 10 11 12 13 13 13 13 14 14 14 14 13 14 13 13 12 9 7 8 8 7 5 3 2 4 5 7 8 8 8 7 7 9 10 8 7 6 5 10
5 5 6 7 8 8 6 6 6 7 9 10 10 9 10 11 11 11 11 11 12 12 11 12 9 7 5 4 4 4 4 4 3 2 2 3 1 1 0 3 5 5 4 5 6 7 8 9 9 9 10 12 14 13 13 12 12 12 12 12 12 12 12 12 10 8 8 9 9 9 7 6 5 5 6 5 6 5 6 8 9 8 9 6 4 2 2
5 5 5 5 7 5 4 5 5 6 8 9 10 10 8 9 10 11 11 12 11 12 12 13 11 9 6 4 4 4 3 3 2 2 1 1 2 3 3 3 3 3 4 6 6 7 9 10 10 10 10 12 13 13 13 11 11 12 12 12 12 11 12 12 14 14 9 8 10 11 8 7 7 8 8 8 8 8 9 9 9 8 8 8 8 11 12
3 4 6 5 5 3 4 5 5 6 6 7 9 10 10 8 8 10 11 12 11 12 13 13 11 10 6 3 3 3 2 1 1 1 1 3 5 3 3 3 4 5 5 6 6 8 10 10 10 10 11 12 12 13 13 12 11 11 11 11 12 16 19 22 17 14 11 7 4 2 2 4 3 2 1 3 7 7 8 8 9 9 9 8 9 10 11
1 1 4 4 2 4 4 4 4 5 6 7 8 9 11 11 12 12 12 11 12 12 12 13 12 10 7 6 3 1 2 2 3 3 5 5 4 3 3 3 3 4 3 4 6 9 9 10 11 12 13 12 12 13 12 12 11 10 11 12 13 12 14 21 14 14 11 6 6 6 9 11 11 10 9 8 8 9 9 9 10 10 10 10 10 11 7
0 2 2 1 3 3 3 3 3 5 5 6 6 8 9 8 8 9 10 10 11 12 11 10 11 11 6 2 4 4 4 4 5 4 5 4 4 4 4 4 3 4 5 5 7 8 9 10 11 12 12 12 13 12 12 11 11 10 10 10 11 11 12 14 15 14 11 8 9 12 11 13 12 13 14 14 13 12 10 11 10 11 11 11 11 7 5
4 4 4 4 3 3 3 3 3 3 4 4 5 7 7 8 8 9 9 11 11 12 13 12 10 11 11 7 6 7 7 6 5 5 5 5 6 5 5 5 4 5 5 6 8 9 9 10 11 11 12 12 13 13 13 12 10 9 10 9 11 12 13 12 14 12 12 9 9 13 12 11 9 10 11 13 13 12 12 12 12 11 10 9 6 3 5
4 4 4 4 4 3 3 2 2 2 3 4 6 6 6 7 8 8 11 10 10 10 11 10 11 9 9 9 9 8 8 7 6 6 6 6 7 6 5 5 6 6 6 6 9 10 10 11 11 11 11 11 11 13 13 12 11 10 10 10 11 11 12 11 12 11 11 13 10 7 10 11 10 9 10 11 11 11 11 12 11 10 7 5 5 6 7
4 3 2 1 1 1 1 1 1 1 2 3 4 5 6 6 6 6 9 9 9 9 9 10 10 9 9 9 9 9 8 7 7 8 8 7 7 6 7 8 8 8 8 8 9 10 11 10 17 21 12 10 11 11 13 13 10 10 10 10 9 10 11 11 12 11 11 12 12 8 4 7 10 10 9 8 7 7 6 5 3 5 7 7 7 8 7
4 4 3 2 2 1 1 1 0 0 1 3 3 5 7 7 6 5 6 7 8 9 8 8 9 10 9 8 7 7 8 8 8 8 7 6 7 8 8 9 10 10 10 10 11 11 10 10 18 20 12 9 10 11 13 20 10 10 9 10 10 10 11 12 12 12 12 12 11 10 8 2 4 6 7 8 7 7 8 7 7 7 7 8 9 9 8
4 4 3 3 1 2 1 1 0 1 1 2 3 3 4 6 5 6 5 6 7 8 8 8 7 7 7 7 8 9 9 9 9 8 8 8 7 8 9 8 7 6 8 9 9 9 8 12 18 12 9 9 10 10 13 20 18 11 9 10 9 10 9 11 11 12 12 12 12 10 9 7 4 4 5 7 8 9 9 9 8 8 8 8 8 8 9
3 2 2 1 0 2 1 1 1 1 1 2 3 3 4 5 6 5 5 6 7 7 8 7 6 7 9 8 8 8 9 9 9 9 9 8 7 8 8 8 7 7 5 7 8 8 9 11 9 8 8 9 10 9 12 17 17 10 9 8 9 9 9 8 9 10 11 11 10 10 10 10 8 8 8 7 8 9 10 12 11 10 10 9 9 10 9
4 4 3 2 1 2 1 0 0 0 1 1 1 3 4 4 5 4 5 5 7 8 7 6 7 8 9 9 8 8 8 8 9 10 9 8 8 7 7 7 8 6 7 11 8 7 13 18 11 8 8 8 9 8 9 14 13 8 8 8 8 8 8 9 10 11 11 11 12 13 11 10 9 9 9 9 8 7 8 8 8 9 9 9 9 9 9
6 4 4 3 1 1 2 1 1 1 0 2 3 3 3 3 4 4 5 5 6 6 6 6 7 8 8 8 8 8 9 8 8 9 9 8 9 7 7 8 9 7 6 8 8 9 13 13 10 8 7 8 7 10 8 12 10 7 7 8 7 8 9 9 10 9 10 11 12 11 11 10 9 11 10 10 9 9 10 9 9 9 8 9 10 9 10
6 6 4 4 3 2 3 1 1 1 2 2 2 3 4 4 4 4 5 4 3 5 5 6 9 8 6 7 8 9 9 9 8 7 9 9 9 7 7 7 8 8 12 11 11 10 8 8 9 9 8 7 8 15 14 9 8 8 8 8 8 9 8 8 9 9 10 9 10 11 11 11 11 11 11 11 10 9 10 11 11 10 9 9 9 9 10
6 7 5 5 3 3 2 1 1 1 0 1 1 2 3 3 3 4 4 4 3 4 6 5 7 8 8 7 8 8 8 8 9 8 5 7 8 8 7 6 7 7 14 9 9 7 8 7 8 8 14 12 10 15 13 8 8 8 8 9 9 9 9 9 10 8 10 10 10 11 11 11 11 11 12 10 9 8 10 12 12 11 10 9 9 10 10
7 5 5 4 4 3 2 1 0 2 1 0 0 1 2 3 3 3 3 3 3 4 5 5 6 6 7 6 7 7 7 7 7 7 6 5 5 6 6 5 6 10 15 8 8 8 8 7 8 14 19 18 18 16 9 8 8 8 8 9 9 9 9 10 10 10 10 10 9 10 10 11 11 10 10 10 10 9 10 11 11 11 10 10 9 9 10
6 5 6 5 4 3 2 2 2 2 2 1 1 1 1 2 3 3 2 3 3 4 4 5 6 6 6 6 5 5 6 6 6 7 7 7 8 8 8 9 8 7 10 13 8 8 7 9 13 19 17 19 18 15 8 8 9 9 8 9 9 9 10 9 10 9 9 10 10 10 10 10 10 10 9 9 9 10 11 12 12 11 10 9 9 9 10
5 6 6 7 5 4 4 4 3 1 2 3 3 1 1 0 1 2 3 3 3 3 3 4 5 5 5 5 4 5 5 7 7 7 6 6 7 6 7 9 7 8 14 13 8 8 8 17 20 18 17 16 15 9 8 8 8 8 9 10 10 11 10 9 10 10 10 10 11 10 10 10 10 10 9 9 10 10 9 11 13 12 10 9 8 9 10
6 6 5 4 4 4 4 3 2 2 1 0 1 3 2 0 1 3 3 4 3 3 3 3 3 4 5 5 5 5 5 6 7 7 7 6 7 8 10 13 12 14 11 8 8 9 9 11 14 18 18 17 13 7 8 8 9 9 9 10 10 10 9 9 10 10 10 10 11 11 12 11 10 9 9 10 11 11 10 9 8 12 12 10 9 9 10
7 6 6 5 6 5 3 2 2 2 2 3 3 2 1 1 2 3 3 3 3 3 3 3 3 2 2 2 3 4 4 4 7 7 6 6 6 6 6 6 10 14 14 11 12 14 20 19 19 18 17 15 9 8 9 8 8 9 9 10 9 10 10 9 9 8 9 9 10 9 9 9 9 9 9 9 10 10 10 10 9 10 12 12 9 8 9
4 6 5 5 5 4 3 3 3 3 4 4 1 1 2 3 2 3 3 3 3 3 3 3 2 2 2 2 3 3 4 4 5 5 4 5 5 5 6 8 13 13 9 7 7 7 15 18 16 16 15 12 8 8 8 8 9 10 9 9 9 9 9 9 9 9 9 9 9 9 8 9 9 9 9 10 10 10 9 10 10 10 11 11 10 9 9
2 3 3 5 5 3 3 2 3 5 4 3 4 3 2 3 3 2 2 3 3 4 3 3 2 1 1 1 2 2 2 2 2 3 3 4 4 4 6 6 7 11 11 7 7 7 10 16 15 15 11 7 8 9 9 9 9 10 9 11 10 8 9 9 10 11 10 10 10 10 10 9 9 11 11 9 10 10 10 11 11 16 22 14 10 9 9
3 2 2 2 4 4 3 3 4 3 2 1 4 4 2 2 2 3 3 2 2 2 4 4 2 1 1 1 1 2 2 2 2 4 3 3 3 6 6 5 6 7 7 7 6 6 6 6 7 9 9 9 8 9 9 10 9 11 11 9 10 9 9 9 8 9 9 9 9 10 10 9 9 9 9 9 10 10 10 11 11 10 9 9 9 8 9
3 1 1 1 3 3 2 2 2 2 2 2 4 6 4 3 3 4 3 5 3 2 2 3 4 4 4 3 3 3 3 4 3 3 3 2 2 1 3 6 4 6 6 5 6 6 6 7 10 12 12 9 8 9 11 14 10 10 11 11 10 10 11 10 9 9 9 9 9 8 9 9 9 9 9 9 9 10 10 10 9 8 8 8 8 8 8
Wind_Direction
315 332 334 335 332 320 317 319 321 322 318 312 310 302 296 325 269 273 301 319 322 315 341 354 17 13 17 31 21 17 12 15 23 27 32 39 42 40 41 35 28 29 31 23 26 37 25 6 283 228 202 192 191 189 183 182 182 185 182 184 187 190 192 197 199 198 199 199 201 202 203 204 207 208 209 209 209 208 207 209 209 209 208 206 205 206 208
337 341 340 334 323 318 321 314 318 320 314 307 303 296 296 289 267 271 280 314 310 314 349 343 329 8 26 42 36 24 15 18 22 25 27 34 35 35 36 34 28 24 23 26 27 29 29 19 4 12 195 217 205 188 181 176 180 179 176 184 188 191 195 197 196 196 197 198 200 201 203 205 206 207 209 209 209 209 208 209 209 208 208 207 206 207 207
326 321 333 327 327 328 317 327 317 318 314 308 298 292 279 293 286 284 305 343 313 304 338 25 357 13 22 30 38 35 10 12 27 24 20 27 29 29 33 32 25 16 17 23 30 30 17 10 15 9 339 282 186 187 181 176 173 175 176 183 188 191 196 195 195 194 194 198 198 201 204 206 206 207 208 209 210 210 209 208 209 208 207 208 208 208 208
302 316 329 327 327 335 325 320 301 292 310 338 344 331 355 359 315 293 305 353 292 311 341 41 24 29 47 45 40 40 26 14 22 15 16 20 22 24 26 24 17 12 11 14 16 19 13 9 2 2 0 341 342 100 75 121 152 165 180 184 188 192 193 192 193 192 194 195 198 201 201 205 207 207 208 209 211 210 209 208 208 208 208 208 208 208 209
259 282 343 332 343 345 333 296 208 287 323 324 332 320 23 9 349 344 117 237 221 290 348 28 14 30 45 47 37 44 37 22 18 20 7 21 18 19 21 18 14 7 1 0 3 6 11 8 358 3 359 356 346 351 115 145 236 167 165 181 191 195 193 193 192 192 192 195 197 200 201 203 205 206 208 210 211 210 209 208 206 208 209 207 209 209 208
252 349 360 2 9 342 257 268 338 338 327 322 326 344 360 358 14 289 253 327 334 329 358 51 35 44 44 59 55 57 47 23 11 6 6 18 23 19 16 15 9 359 353 350 342 360 2 358 359 360 355 13 18 339 310 218 163 210 191 182 187 193 197 196 193 191 192 194 197 199 199 200 203 206 208 211 211 210 210 208 208 209 209 210 210 209 209
274 25 27 1 288 245 15 341 321 316 292 273 304 53 8 6 6 2 341 349 351 337 324 45 153 129 91 72 64 51 39 45 33 5 358 7 14 19 19 14 5 352 350 344 344 350 356 1 7 358 353 357 15 21 323 300 288 182 188 206 197 200 203 202 196 194 194 194 196 197 198 200 202 205 208 210 211 210 208 208 207 208 209 210 211 210 211
39 52 85 283 240 238 319 310 327 345 337 356 310 94 6 4 2 1 354 344 350 344 343 335 304 174 108 91 61 53 53 44 37 17 2 360 2 9 11 17 18 4 345 334 331 335 345 4 6 5 353 351 1 7 318 257 255 249 200 202 217 210 208 204 203 198 195 196 196 196 198 199 202 205 206 207 210 210 211 211 210 210 213 212 211 211 211
181 189 177 232 331 319 323 7 34 330 340 328 332 309 284 348 353 355 342 339 344 346 346 336 331 278 219 50 49 50 41 38 40 32 11 355 356 355 0 13 17 360 331 321 320 330 359 8 6 357 351 350 353 350 324 303 269 249 240 226 223 222 219 209 205 201 199 198 198 197 197 200 204 205 205 206 208 207 213 213 210 209 211 211 212 211 212
144 169 271 325 349 269 316 273 261 314 324 326 310 267 207 352 350 342 346 344 340 344 345 350 341 325 51 13 12 26 35 32 26 32 20 1 354 0 347 349 5 7 343 335 338 347 353 8 5 350 347 345 349 347 320 301 304 294 242 230 228 226 224 215 206 202 201 201 200 199 198 202 204 205 205 205 206 204 211 212 214 212 209 212 213 213 212
106 183 205 212 217 235 161 328 321 325 325 321 311 301 206 1 336 331 339 334 337 345 347 346 347 17 34 348 356 23 24 33 29 5 7 359 354 2 1 354 349 350 353 346 345 348 354 358 357 347 340 343 347 334 296 290 293 287 293 293 268 242 230 219 209 203 201 201 201 200 201 204 202 202 203 204 204 203 210 214 219 214 209 212 214 214 215
187 169 217 242 212 250 293 333 344 325 312 314 40 321 247 349 317 313 310 327 330 331 341 343 357 16 359 333 334 8 16 19 35 20 354 348 351 360 360 0 348 339 335 349 352 353 359 349 338 341 343 332 311 294 285 291 295 294 294 298 302 303 278 237 219 206 201 201 202 202 203 203 201 202 201 202 203 204 207 210 215 215 213 213 214 216 214
218 222 257 297 302 298 7 344 314 308 292 270 268 244 335 312 302 305 313 307 310 309 321 353 343 325 297 284 296 325 356 5 11 4 351 345 351 353 355 352 353 346 342 345 353 347 338 339 342 339 333 318 304 300 301 304 304 308 311 307 301 296 284 260 231 214 207 203 203 204 202 200 199 199 199 203 201 202 205 207 210 214 215 214 216 218 215
210 213 198 231 240 263 333 320 325 319 12 81 209 289 288 276 291 300 306 309 298 300 307 310 290 303 309 317 318 329 343 344 333 349 348 340 352 355 345 344 355 352 340 337 341 346 344 337 335 333 326 316 307 310 314 313 313 309 307 305 301 296 287 266 242 224 214 211 208 206 202 198 198 202 203 201 200 201 203 203 207 211 213 215 216 218 217
196 155 224 315 274 286 4 345 330 36 70 218 350 307 286 266 280 299 305 307 300 297 300 299 284 297 308 313 319 321 315 333 341 343 351 354 350 349 347 345 350 352 342 338 340 338 336 335 331 328 326 322 320 318 315 315 317 316 311 304 296 292 287 280 261 237 223 213 209 209 205 200 198 201 197 198 200 200 201 203 207 210 212 212 215 217 217
196 214 194 215 184 315 359 30 313 306 276 268 325 349 324 313 303 304 312 309 304 303 298 299 292 280 287 304 311 322 317 325 321 330 339 346 348 345 343 337 336 343 342 336 335 334 335 335 337 337 335 330 327 325 321 322 319 317 317 315 307 298 291 285 272 253 233 222 213 208 204 198 198 198 196 198 198 197 198 201 204 209 213 211 212 215 217
171 223 243 282 136 265 336 333 272 277 305 1 340 336 304 310 309 328 315 306 306 307 306 302 295 290 276 273 293 307 299 309 314 322 330 337 336 339 335 331 334 341 344 338 336 334 339 340 342 342 340 335 329 327 327 325 323 319 314 312 308 301 294 287 276 262 242 225 215 209 206 198 197 197 197 192 197 198 196 201 205 209 211 208 211 214 216
277 266 255 275 346 349 329 320 302 337 330 323 337 327 318 302 295 297 297 299 299 298 299 297 295 288 286 281 286 297 300 307 305 309 314 321 330 329 331 331 336 337 336 341 340 339 337 342 341 344 341 337 330 325 325 327 324 324 323 320 315 308 303 290 276 262 247 230 216 209 203 200 200 196 192 190 195 193 196 202 204 208 208 208 211 212 215
35 284 20 352 331 328 322 317 302 315 315 316 318 312 303 295 292 288 281 281 286 287 286 283 284 287 282 275 264 270 279 286 297 302 302 305 313 321 327 323 331 336 339 344 343 341 335 338 340 339 338 335 328 324 325 323 324 327 327 321 314 309 304 301 282 258 240 229 216 208 204 202 200 196 195 193 193 193 196 200 203 207 207 207 212 212 216
204 248 310 317 325 310 294 294 355 329 324 319 315 305 296 291 284 277 274 275 277 276 276 278 283 285 281 280 280 258 248 265 276 282 289 298 311 317 321 320 332 335 335 339 339 340 334 331 335 335 335 334 330 327 325 327 328 326 321 320 312 305 301 300 290 264 240 222 212 204 201 199 197 199 197 195 194 197 197 199 200 206 207 210 212 213 217
267 288 285 310 313 286 224 356 314 309 307 309 307 306 303 298 298 297 289 263 263 266 264 270 273 278 280 276 272 271 261 262 271 274 272 281 292 302 322 326 334 331 327 332 333 334 329 324 328 331 330 329 332 331 331 331 330 324 316 314 310 303 301 300 291 266 239 224 210 204 199 199 201 198 193 192 199 202 203 195 197 198 203 208 208 211 210
295 248 284 353 342 316 295 307 311 312 307 304 303 304 303 307 307 308 306 299 279 264 256 252 261 266 272 275 273 268 269 264 266 267 270 283 295 297 297 315 320 317 325 327 328 326 323 321 324 327 329 329 331 333 333 333 331 323 316 312 311 306 303 301 300 277 241 227 210 203 199 198 200 206 210 203 199 195 196 199 200 202 197 204 203 201 209
243 251 258 249 255 269 268 287 302 302 304 305 305 309 310 306 301 301 304 304 298 283 265 243 251 263 264 269 264 265 271 274 264 241 254 286 297 293 303 322 324 325 323 325 324 321 323 324 324 326 328 331 332 334 337 333 330 323 316 311 307 302 303 307 307 289 251 226 215 202 201 199 197 194 183 182 24 241 222 199 198 201 200 203 196 197 201
248 253 260 258 247 261 284 293 297 295 296 300 303 302 300 302 303 305 305 300 288 281 273 264 254 259 262 261 257 255 264 267 270 277 277 269 262 275 297 301 308 322 323 328 326 319 319 325 326 327 326 333 337 335 336 332 328 321 312 304 303 299 300 303 302 292 250 231 213 203 200 196 193 189 184 183 182 29 51 149 203 200 199 199 201 202 205
222 219 213 223 232 262 274 282 285 286 290 303 310 310 309 314 312 310 312 308 288 265 259 261 260 245 248 253 244 243 246 254 252 266 278 278 263 273 287 304 313 311 306 305 310 311 316 326 330 327 324 329 337 337 334 333 327 316 309 300 293 290 287 286 286 294 291 255 223 207 200 194 190 186 182 188 186 197 263 77 165 187 201 204 205 206 206
223 245 247 255 271 270 278 290 283 284 301 307 309 309 310 312 315 321 316 316 310 273 250 249 256 250 238 253 254 248 245 246 251 253 270 287 289 288 287 282 294 290 293 304 310 311 320 329 330 326 323 327 337 336 334 330 325 316 300 294 294 277 270 270 271 269 286 312 315 282 236 198 184 176 183 186 194 193 188 185 177 25 178 194 203 216 236
230 235 243 290 281 275 267 266 288 299 301 306 308 308 308 308 314 311 309 322 326 323 290 264 252 254 246 238 237 229 226 247 244 240 213 236 268 277 272 262 281 300 316 320 318 329 338 334 328 328 325 326 332 331 332 331 329 323 330 329 325 311 296 276 244 242 229 244 246 214 192 180 179 182 186 194 193 190 192 195 196 195 195 185 168 175 197
222 217 177 208 248 264 271 275 285 296 302 305 310 313 310 310 312 319 324 333 340 333 321 306 280 261 252 246 241 257 266 256 243 236 228 241 251 248 271 294 317 326 328 328 329 340 339 327 325 326 325 326 326 326 328 330 328 327 330 331 330 323 316 290 267 234 231 243 236 266 284 257 209 182 183 182 187 193 192 195 200 201 207 191 178 175 169
237 221 203 212 235 249 259 278 288 296 303 308 311 312 316 322 326 325 329 331 332 331 332 328 314 285 256 253 238 235 235 229 225 240 249 269 215 189 271 323 323 323 338 344 340 337 332 329 330 328 325 326 324 325 326 328 327 327 331 333 328 326 321 318 295 251 247 235 232 223 205 179 181 163 175 199 199 175 166 172 183 188 179 166 135 170 115
229 221 212 232 241 252 280 297 296 302 306 313 319 321 323 324 328 331 329 333 334 335 327 325 322 305 266 237 238 230 225 224 228 240 268 326 86 52 24 341 312 325 346 352 339 339 335 331 333 331 328 324 322 322 323 327 327 328 331 332 327 324 320 316 307 289 251 225 226 218 206 186 183 196 207 186 183 186 184 186 189 176 176 187 193 195 196
258 208 203 224 239 279 283 284 299 302 307 316 322 323 327 330 330 330 330 330 334 333 331 330 327 319 304 273 252 256 248 271 288 295 40 65 72 52 28 17 20 359 352 341 337 345 333 332 328 328 325 322 324 327 326 329 332 335 338 336 331 324 324 320 313 294 259 236 208 139 354 334 330 319 275 212 197 196 194 190 191 196 201 191 197 205 209
282 231 226 223 246 268 284 291 298 308 318 317 325 335 336 334 335 333 332 338 335 332 328 327 330 324 315 313 322 10 45 30 12 34 71 70 63 41 22 19 20 1 349 348 0 347 336 331 333 330 325 325 331 333 330 329 334 342 346 337 332 328 327 325 321 306 268 214 156 162 186 191 192 185 187 207 220 213 200 186 192 201 204 205 210 213 194
198 323 353 285 281 281 273 275 291 313 319 321 319 330 336 332 331 331 330 334 334 335 334 324 331 342 326 337 7 43 44 60 55 55 66 61 50 36 19 23 11 359 356 8 8 349 339 334 328 323 328 332 335 333 332 330 337 346 343 338 334 327 327 326 316 314 288 219 197 203 201 203 198 183 182 191 191 198 204 193 196 201 207 208 213 200 170
197 191 200 196 197 231 264 279 288 306 308 304 310 324 330 340 340 336 334 340 340 341 342 335 337 1 358 10 44 41 37 40 43 50 53 48 44 30 20 17 7 4 2 11 7 353 344 335 327 329 335 337 335 336 332 335 344 348 341 346 342 338 334 333 323 324 324 282 232 213 213 212 202 194 192 188 187 189 191 193 200 202 205 208 194 119 135
170 186 174 201 203 212 201 224 262 289 311 326 321 322 324 334 346 343 350 347 339 340 334 340 351 360 11 2 26 40 40 38 31 28 32 42 45 29 15 15 11 10 9 17 8 352 341 332 330 340 342 338 336 338 332 340 350 348 346 351 352 345 338 329 327 329 325 320 305 245 209 206 205 200 196 192 190 190 190 194 198 197 189 150 104 106 115
137 151 153 191 203 215 200 218 222 259 316 309 314 321 328 329 340 339 341 338 333 338 346 351 354 1 13 18 15 24 33 29 31 26 25 35 42 29 28 27 15 8 4 6 5 350 341 334 345 352 348 341 343 339 337 350 352 350 344 355 359 355 344 335 327 331 340 329 325 326 295 205 192 191 184 186 181 181 172 145 117 125 130 133 133 125 121
159 150 174 191 211 183 207 255 264 12 316 315 325 333 329 328 330 326 336 337 341 346 349 352 0 7 8 8 12 18 26 23 25 27 23 24 41 36 31 26 19 12 8 7 357 343 335 338 350 355 351 343 343 343 342 358 359 350 345 357 6 1 353 345 336 343 347 338 330 329 328 332 129 148 149 143 140 128 124 131 128 123 123 131 136 130 120
189 160 170 176 208 185 217 252 170 106 347 333 328 335 332 321 319 326 329 336 346 350 355 357 2 5 8 10 15 21 22 22 22 24 24 27 35 41 33 25 13 6 13 9 346 336 329 349 356 354 346 350 343 349 349 4 6 360 349 2 6 4 355 350 340 348 356 341 331 335 344 354 16 85 113 118 115 115 115 112 109 109 113 116 111 110 114
176 147 130 183 166 179 193 102 36 14 3 352 323 323 328 333 327 326 340 351 348 354 357 352 358 21 20 19 23 22 27 25 25 23 25 23 30 43 40 19 5 2 3 1 351 337 349 359 359 353 354 349 344 352 358 6 10 2 354 355 3 8 3 354 341 349 3 340 334 348 357 356 12 36 48 66 94 111 115 122 121 123 119 119 117 121 120
179 170 177 162 155 190 144 10 20 298 339 336 342 326 324 331 323 323 336 355 357 360 355 352 9 27 21 20 22 25 23 28 29 27 25 22 28 33 36 22 5 345 10 14 4 351 7 7 3 359 355 349 346 353 5 13 11 4 360 360 3 7 9 10 357 357 3 350 354 356 3 7 14 32 38 41 42 59 72 89 93 104 107 102 99 98 96
183 179 183 144 162 152 149 166 210 217 87 343 329 324 325 334 322 332 345 350 342 350 359 10 14 24 26 21 20 21 20 21 29 32 24 28 27 26 26 16 353 343 13 23 13 15 15 13 11 5 358 358 341 13 11 17 13 360 5 11 10 8 12 20 17 0 359 2 357 4 6 6 10 35 37 44 55 63 67 68 69 63 67 91 92 88 85
186 173 161 162 180 175 178 192 122 75 13 335 330 337 326 333 344 339 333 330 344 353 5 12 32 35 32 29 28 27 25 17 19 32 37 33 23 13 22 12 353 352 16 20 11 6 5 4 7 10 15 11 10 21 24 18 14 11 8 11 20 19 11 22 27 7 354 7 9 1 9 15 20 26 33 40 41 50 69 76 73 66 60 57 71 78 89
168 165 181 180 170 143 138 86 73 174 236 310 315 318 316 329 341 346 344 339 353 7 14 10 21 27 27 30 34 33 27 18 18 11 38 51 37 22 15 3 344 4 18 20 16 6 11 11 14 14 26 30 29 27 26 22 19 21 18 15 17 21 19 18 30 24 11 6 20 15 11 17 22 27 29 28 32 44 68 73 72 71 70 66 70 75 74
169 172 170 153 150 153 150 130 189 155 151 318 291 293 316 330 326 334 351 354 2 17 19 16 22 25 24 26 35 35 29 26 25 15 13 28 44 28 3 14 360 14 25 22 17 18 14 16 25 31 31 33 33 32 28 22 24 25 30 28 25 22 21 23 26 30 25 9 13 19 15 20 22 23 31 30 18 28 49 64 70 70 70 70 66 70 76
159 154 148 156 163 152 172 196 173 193 209 230 244 271 289 299 311 323 2 29 41 44 37 34 29 25 21 22 35 39 36 33 35 26 24 19 26 21 6 22 16 12 23 27 22 18 17 29 29 33 36 34 33 33 33 30 28 31 29 35 36 32 32 30 29 27 26 24 22 20 19 25 23 22 18 32 40 28 31 50 55 57 60 65 71 73 76
150 147 150 150 152 170 197 200 226 235 230 219 255 281 267 271 328 354 36 67 63 54 48 43 42 31 23 24 29 36 41 40 35 32 36 23 23 14 14 31 18 24 29 30 26 24 23 37 36 32 32 35 33 31 31 29 32 32 34 35 38 35 32 29 32 35 35 33 32 29 23 20 26 27 25 27 32 36 29 47 62 54 51 52 56 73 82
159 155 161 151 153 167 185 203 221 228 258 177 193 238 277 331 28 41 60 87 93 73 60 51 49 45 43 43 38 36 41 45 44 29 27 25 22 28 31 31 31 29 24 23 30 32 32 34 36 34 31 27 26 29 35 37 37 38 39 39 40 38 32 29 31 32 33 35 41 38 32 32 29 29 29 33 37 39 29 22 40 71 59 40 37 48 68
166 156 153 143 144 165 174 203 235 245 216 216 222 227 198 154 72 53 54 80 106 111 89 74 50 25 25 36 56 66 60 55 59 38 16 26 25 26 24 25 33 32 30 23 29 39 41 39 38 36 33 28 23 24 31 38 43 42 40 40 38 39 38 32 32 35 40 42 40 43 43 37 34 34 35 41 43 43 41 44 39 44 69 69 48 32 43
222 160 153 143 147 157 173 199 209 221 235 247 252 222 144 114 80 61 58 60 81 107 107 87 63 26 5 52 64 54 60 58 67 76 39 44 38 35 32 32 34 34 29 24 21 23 43 45 42 39 35 30 25 26 28 34 43 48 45 42 40 40 39 40 34 33 39 44 46 47 46 48 46 43 42 41 44 44 45 47 48 54 56 59 59 53 50
354 62 82 115 120 128 143 182 236 235 253 238 210 214 130 98 86 89 79 65 81 98 97 106 127 128 8 339 341 360 10 70 83 73 71 63 54 46 37 37 40 39 41 34 31 28 33 41 44 44 38 30 33 35 34 36 39 45 45 45 42 39 40 42 41 39 39 39 38 39 41 40 43 51 50 48 49 48 48 47 49 55 57 58 55 55 56
115 148 193 197 142 167 181 193 214 237 242 241 181 175 128 145 146 102 83 63 23 58 67 62 42 322 267 289 313 323 340 345 81 94 91 63 59 53 52 39 37 42 39 35 26 26 22 26 37 40 38 39 40 44 44 43 44 46 45 45 44 41 38 37 40 43 44 44 42 42 41 39 39 42 42 43 50 50 49 54 53 52 55 58 60 58 59
332 75 320 291 135 160 163 260 298 314 341 360 97 119 128 123 102 109 109 94 78 65 75 71 48 17 29 9 3 355 355 20 32 31 61 87 82 42 32 45 37 35 33 31 29 27 27 33 42 46 46 44 43 43 48 47 44 47 50 50 51 50 48 47 44 43 42 44 46 47 47 45 42 42 42 41 45 50 53 53 49 48 51 55 55 55 58